Theta_e
330 336 344 346 348 349 348 347 347 347 347 347 347 347 347 346 344 343 342 340 340 339 338 337 336 335 334 334 334 335 337 334 335 339 341 343 344 343 341 341 342 340 345
334 340 343 345 347 347 348 347 347 346 346 345 345 345 344 343 341 340 337 336 335 334 333 331 330 329 328 328 329 331 332 329 336 339 341 342 344 344 344 343 342 338 341
338 340 340 343 346 345 345 345 345 344 343 342 341 341 339 338 337 334 333 331 330 330 329 328 326 325 324 324 325 327 327 325 331 333 336 335 339 344 344 342 342 342 342
338 340 341 341 344 344 344 343 342 341 340 339 338 336 334 333 331 330 328 327 326 326 326 325 323 322 322 322 322 323 323 320 322 323 320 323 334 339 340 339 340 339 340
336 339 339 341 343 343 342 341 340 339 337 336 333 332 330 329 327 326 325 324 324 324 323 323 322 321 320 321 320 319 317 316 314 310 309 315 319 331 334 333 332 333 334
331 335 338 340 341 340 339 338 337 335 333 332 330 328 327 325 324 323 323 322 321 321 321 321 321 320 319 318 318 317 315 313 306 302 304 308 312 327 328 328 328 328 329
326 330 332 336 336 337 335 335 333 331 329 328 326 324 323 322 321 320 319 319 319 319 319 319 317 317 316 316 315 314 313 308 296 297 302 304 309 322 324 324 324 324 325
321 322 324 325 330 332 331 330 329 327 325 323 321 320 319 318 317 317 317 317 318 318 317 316 315 314 314 313 312 311 309 306 296 296 300 302 315 320 322 322 322 322 323
318 317 317 318 320 323 325 326 324 322 320 319 316 315 313 313 312 313 314 315 315 315 315 314 312 311 311 310 310 308 306 305 292 294 298 301 315 319 320 320 321 322 322
316 315 313 313 313 313 314 319 319 318 315 313 311 310 308 307 307 309 309 311 311 311 311 311 309 308 307 307 307 306 304 301 292 293 295 302 313 316 318 319 319 320 321
313 312 311 311 310 309 310 310 313 313 311 308 306 305 301 298 297 299 306 307 307 307 308 308 308 306 303 302 303 303 300 292 292 292 294 308 312 315 317 317 318 319 320
304 306 308 308 307 305 306 306 304 303 302 300 300 299 300 299 300 298 299 302 303 302 303 304 304 301 296 291 291 296 291 291 291 292 293 307 310 313 315 316 317 318 319
303 304 305 305 303 302 303 303 301 300 298 298 300 300 299 297 296 294 292 292 292 296 292 293 292 291 291 291 291 291 291 291 291 292 295 305 308 311 314 316 317 317 318
303 303 302 301 299 298 298 296 296 296 295 297 298 297 296 295 292 291 291 291 290 291 290 290 290 290 290 291 291 291 291 291 291 292 293 303 307 310 312 314 316 317 317
302 302 301 299 297 297 297 297 295 295 294 294 295 296 293 291 291 291 290 290 289 289 289 289 289 289 289 290 291 291 291 291 291 292 292 301 306 309 312 315 315 314 314
301 300 301 299 296 297 295 295 294 294 293 293 292 293 293 292 290 290 290 289 289 289 289 289 288 288 288 289 290 290 290 290 290 291 292 293 305 308 310 311 311 311 312
299 299 298 297 296 295 295 294 293 293 294 292 292 292 292 292 290 289 289 289 289 288 289 288 288 288 288 289 288 289 290 290 291 292 292 293 295 303 306 307 307 308 308
300 297 297 299 296 295 294 293 293 293 292 292 292 291 292 292 290 289 289 288 289 289 288 287 287 287 287 287 287 287 287 289 291 292 292 293 293 292 296 302 302 303 305
301 298 296 296 295 295 294 293 292 292 292 291 291 291 291 292 292 289 289 288 289 288 287 287 287 286 286 287 288 288 288 289 288 290 291 291 291 290 290 295 297 297 300
295 297 296 296 296 295 294 292 292 291 291 291 291 291 292 292 292 290 289 288 288 287 286 286 286 287 286 286 288 287 287 288 288 288 288 290 289 289 289 289 288 289 297
295 294 295 295 294 293 291 291 291 290 291 291 291 293 293 292 292 290 289 288 287 286 286 286 286 285 285 286 285 285 285 286 288 287 287 287 288 288 289 289 288 288 289
292 293 294 294 294 293 292 291 291 290 291 291 292 292 293 293 292 291 289 289 287 286 286 286 286 285 284 285 283 282 281 284 286 286 287 288 286 287 288 289 288 288 288
289 290 293 294 293 293 293 292 291 291 290 290 290 291 291 292 292 292 291 289 288 287 286 285 285 285 283 284 285 283 280 279 281 285 285 285 286 286 286 287 288 288 288
288 290 292 293 293 293 293 291 290 289 289 289 289 290 290 291 291 291 291 289 288 287 286 285 287 285 284 283 284 287 284 283 280 279 283 284 285 286 286 285 286 287 288
287 288 290 292 292 292 292 291 290 289 289 289 289 288 288 289 289 290 290 289 288 287 286 286 285 285 285 284 283 283 283 282 282 281 279 281 284 284 286 286 286 286 287
285 286 287 288 287 289 289 289 289 288 288 287 287 286 286 287 288 288 289 288 288 288 287 286 286 285 285 284 284 283 283 282 281 281 280 279 281 283 286 287 286 286 286
Wind_Speed
1 3 2 8 12 14 14 13 14 14 14 16 16 17 17 16 16 17 15 15 15 15 14 15 14 14 14 14 13 13 12 12 13 11 6 10 11 13 13 14 12 8 14
5 2 3 7 13 16 17 18 18 17 18 17 17 17 16 16 16 16 14 15 14 14 14 14 14 14 14 14 14 14 13 14 14 13 7 9 9 12 13 13 12 10 14
0 4 5 8 14 16 15 15 16 17 18 17 15 16 16 15 15 13 14 15 14 14 14 14 15 15 16 15 15 14 14 14 14 14 13 6 6 13 16 16 15 15 14
4 5 5 10 14 16 17 17 15 16 16 15 13 14 14 14 14 14 15 15 14 14 14 14 14 15 16 16 16 15 15 16 15 15 7 8 6 13 15 15 16 15 16
7 7 8 12 16 16 16 16 14 16 17 15 13 13 14 15 15 15 15 15 15 15 15 14 14 15 16 16 16 16 16 16 15 11 8 7 6 11 14 15 14 14 15
8 10 10 14 16 16 13 15 15 16 16 15 15 14 14 15 14 14 15 14 15 14 15 15 16 15 15 15 16 16 16 16 13 7 7 9 8 15 15 15 14 15 15
9 9 10 16 16 15 13 15 15 15 15 15 14 14 15 15 13 13 13 13 13 13 14 14 14 15 15 15 15 15 16 15 8 7 7 7 7 13 13 13 12 12 12
9 9 9 13 13 12 13 13 14 14 14 14 14 14 14 14 13 13 12 13 13 13 13 14 14 14 14 14 15 14 14 13 8 6 7 6 11 11 11 12 12 12 13
8 8 7 8 11 14 13 12 12 14 13 13 13 15 14 13 13 13 13 14 13 13 13 13 14 14 14 14 14 13 13 13 6 4 5 4 11 10 11 11 10 11 11
6 6 5 5 6 7 6 13 12 13 13 12 12 13 13 12 12 13 12 14 13 13 13 13 13 14 14 13 13 12 12 11 6 6 4 4 10 10 9 10 10 10 11
4 4 4 5 5 6 6 7 10 12 10 11 9 11 8 4 6 8 11 13 13 13 13 13 13 14 13 12 12 12 10 4 5 4 3 10 10 10 10 9 9 10 10
2 2 3 4 4 4 5 5 5 6 4 5 4 5 4 5 5 6 8 11 12 12 12 12 13 12 9 4 4 8 3 4 4 4 3 10 10 9 9 9 9 9 11
2 1 2 3 4 4 4 3 2 2 3 3 5 4 4 4 3 3 3 3 4 8 4 6 6 4 6 4 4 4 5 4 3 3 5 9 8 9 9 9 9 9 11
4 4 3 3 3 4 3 3 3 2 2 3 3 5 3 2 4 4 3 4 4 3 5 4 3 5 6 6 5 5 5 4 3 2 4 9 8 9 9 9 9 11 13
5 5 5 4 3 3 3 2 2 2 3 2 3 3 3 3 3 2 3 3 4 4 4 4 4 4 5 6 5 5 5 5 5 3 2 7 8 8 10 11 12 13 14
5 7 5 5 4 4 3 3 2 2 2 2 2 2 3 3 2 3 3 3 4 3 3 4 4 4 4 4 5 5 4 4 4 4 3 4 9 10 11 12 13 13 14
6 5 7 6 5 5 4 3 2 2 3 2 1 2 3 3 3 3 3 3 3 3 5 4 4 3 4 4 5 5 4 5 3 3 3 3 4 10 11 12 13 15 15
6 8 6 5 6 5 4 3 2 3 2 2 1 1 2 3 3 3 3 3 3 4 3 4 4 4 4 4 4 4 4 4 4 4 4 4 4 4 7 11 14 16 15
7 7 8 7 7 6 4 3 3 3 2 1 1 0 1 1 2 3 2 2 3 3 3 3 2 3 3 5 5 4 4 3 4 3 4 5 5 4 3 8 13 14 16
6 6 6 6 7 6 4 3 1 1 1 1 1 2 1 0 1 2 2 3 3 3 4 3 2 2 2 4 4 3 2 2 3 3 2 2 3 4 3 5 4 5 14
4 4 6 8 7 5 2 2 0 2 1 1 2 3 1 1 0 1 1 2 2 3 2 3 3 4 3 5 4 3 2 2 1 2 2 1 3 4 4 4 3 3 5
7 4 4 6 6 4 3 2 2 1 1 1 0 1 1 1 1 1 1 2 2 2 3 3 3 3 2 4 3 1 5 4 3 0 2 2 3 3 4 5 5 5 4
7 6 3 5 5 3 3 2 2 2 1 2 2 2 2 2 1 1 2 1 2 0 2 1 1 1 2 2 4 1 2 2 4 3 2 3 4 3 5 5 5 5 5
7 6 2 5 6 4 5 3 2 2 0 0 1 1 3 4 4 3 3 2 2 1 3 2 2 2 2 2 2 1 1 2 1 6 3 3 4 6 5 4 5 5 5
6 6 5 6 6 5 4 4 3 2 1 0 1 4 5 5 5 5 4 4 4 2 3 4 3 4 3 2 3 1 1 1 2 3 5 5 3 2 4 4 5 4 5
4 6 6 7 6 6 6 6 5 4 3 3 3 3 4 3 4 5 5 4 4 4 4 4 4 5 5 4 3 4 4 3 2 3 4 5 5 5 7 4 4 4 4
Wind_Direction
328 328 253 148 124 115 109 103 103 100 97 89 87 81 75 71 69 66 64 62 58 54 52 49 48 45 41 39 37 36 37 28 19 21 36 47 57 58 51 38 32 27 35
282 254 179 148 124 114 113 105 94 85 76 73 73 73 71 69 65 62 60 57 58 58 51 46 42 42 41 38 35 35 35 29 27 30 63 39 41 60 54 43 38 30 27
352 109 141 141 119 111 105 97 95 94 88 75 65 71 71 70 69 67 63 55 49 50 50 44 40 37 33 35 34 34 37 34 33 35 37 26 23 43 51 43 42 33 25
67 75 92 120 111 104 99 96 93 93 87 81 77 74 74 72 67 63 60 58 50 48 46 45 43 41 36 35 34 34 34 31 34 35 23 11 24 38 39 33 28 27 22
61 75 90 95 96 97 97 100 103 99 97 98 90 82 74 70 66 62 59 52 50 45 43 45 43 40 39 36 38 35 29 31 34 30 16 9 1 32 35 30 22 21 14
57 63 74 96 95 98 101 98 97 96 96 96 93 87 83 73 66 62 61 56 49 46 41 41 39 39 39 38 35 34 33 32 30 21 20 6 360 25 25 24 16 13 9
54 70 72 75 81 90 97 97 98 96 93 92 87 81 76 72 64 60 57 58 53 46 45 43 39 38 34 34 34 33 35 33 30 19 20 6 355 21 18 17 15 11 10
68 59 64 58 68 88 93 97 97 94 94 92 87 80 74 71 65 58 54 49 47 43 44 39 37 35 33 33 32 32 34 39 30 22 14 5 7 16 22 16 10 7 5
61 63 60 64 69 64 68 79 92 91 84 84 83 79 74 68 61 52 44 45 40 40 40 38 32 35 32 31 30 29 28 30 33 30 11 348 4 12 9 16 13 8 6
81 69 71 68 70 70 70 74 80 88 87 86 82 76 66 60 56 49 43 44 41 34 31 31 32 32 29 25 25 28 26 24 16 10 5 345 3 360 14 10 10 11 6
80 90 85 85 78 85 78 68 66 78 83 75 71 71 63 57 48 39 41 40 39 31 29 27 28 27 26 20 17 20 24 12 13 5 356 2 2 2 4 15 12 10 12
130 88 75 93 95 84 92 76 70 70 56 71 72 74 65 60 51 54 41 39 32 30 25 26 26 25 19 9 2 9 13 7 13 352 347 360 359 1 7 11 20 17 17
163 173 141 125 92 86 90 77 66 69 72 60 62 61 61 64 51 46 39 28 19 20 15 16 12 13 8 3 4 1 354 10 8 345 335 355 359 4 13 16 15 18 17
178 194 184 149 123 86 87 80 77 73 65 56 54 58 59 47 43 41 41 25 26 10 9 9 3 353 360 357 2 356 358 355 350 342 333 355 5 17 18 24 21 26 16
199 200 202 167 161 130 110 98 85 76 73 71 59 53 77 68 57 44 36 34 22 4 11 1 358 355 349 348 350 355 355 351 347 343 336 4 27 30 28 34 28 18 10
211 213 194 194 184 157 154 150 134 113 99 76 68 64 70 79 64 45 29 25 23 10 350 0 351 346 339 345 342 350 350 346 352 358 2 4 35 37 38 33 23 16 9
228 202 199 194 182 175 166 153 138 138 122 123 113 53 66 72 63 53 32 17 6 358 357 357 349 340 353 346 344 346 352 358 17 26 33 43 38 39 40 31 22 10 1
214 209 187 181 176 173 161 149 145 144 146 160 121 49 51 69 75 56 34 17 359 4 4 357 353 343 353 353 335 346 360 9 25 37 46 55 54 39 28 31 18 5 352
239 204 197 185 177 163 140 135 149 160 169 169 117 47 334 67 78 70 35 10 11 10 10 359 335 3 338 344 333 352 9 43 37 22 43 57 42 46 31 13 7 357 347
280 204 180 163 157 151 132 123 117 163 206 188 203 225 260 171 66 65 25 11 17 12 5 1 344 330 325 329 328 342 358 40 21 25 74 69 44 35 16 7 347 337 349
331 205 180 158 163 142 124 129 42 239 233 266 240 245 249 227 11 40 2 358 16 23 352 351 340 2 340 339 342 353 327 304 339 39 48 12 351 355 338 339 332 323 325
328 281 187 170 162 161 127 151 142 157 214 230 299 318 269 277 289 276 285 319 350 347 353 3 27 344 334 15 39 287 354 332 350 343 294 298 305 319 328 336 327 319 320
356 334 221 170 155 132 134 101 70 60 38 27 20 20 23 358 304 269 271 265 298 318 308 320 334 35 342 332 35 124 6 298 329 315 309 305 325 325 319 322 309 309 310
344 344 97 127 134 138 146 131 123 131 140 323 11 348 357 19 6 345 313 296 282 261 265 257 202 202 155 262 330 99 179 171 291 319 320 316 324 309 305 306 298 297 301
359 15 47 80 77 84 98 110 113 111 119 335 10 4 2 356 0 358 356 332 307 282 264 247 244 215 200 201 198 255 265 258 216 224 287 309 308 277 284 282 279 282 290
24 42 54 72 62 61 70 63 79 84 53 36 17 9 355 349 352 4 358 351 321 294 273 258 245 230 226 222 216 216 206 217 211 217 259 276 280 297 307 289 275 277 279